FW5461 Weather Reports


Display with metric or nautical units.
time (UTC)temp
F
wind
direction
speed
MPH
gust
MPH
rain 1hr
in
rain 24hr
in
rain mn
in
humidity
%
barometer
mb
20260904115533 67 326 1.0 2.0 0.00 0.04 0.01 88 1013.1
20260904115034 67 298 0.0 2.0 0.00 0.04 0.01 89 1013.0
20260904114540 67 294 0.0 4.0 0.00 0.04 0.01 89 1013.0
20260904114028 66 292 1.0 4.0 0.00 0.04 0.01 89 1012.9
20260904113527 66 294 0.0 4.0 0.00 0.04 0.01 89 1012.9
20260904113027 66 295 1.0 4.0 0.00 0.04 0.01 89 1012.8
20260904112525 66 325 1.0 3.0 0.00 0.04 0.01 89 1012.8
20260904112024 66 332 0.0 3.0 0.00 0.04 0.01 89 1012.7
20260904111522 66 333 0.0 4.0 0.00 0.04 0.01 89 1012.8
20260904111021 66 334 0.0 4.0 0.00 0.04 0.01 89 1012.8
20260904110520 66 338 0.0 3.0 0.00 0.04 0.01 89 1012.6
20260904110024 65 339 0.0 2.0 0.00 0.04 0.01 89 1012.6
20260904105519 66 339 0.0 0.0 0.00 0.05 0.01 89 1012.5
20260904105017 66 339 0.0 3.0 0.00 0.05 0.01 89 1012.5
20260904104516 66 340 0.0 3.0 0.00 0.05 0.01 88 1012.6
20260904104015 66 340 0.0 2.0 0.00 0.05 0.01 88 1012.5
20260904103514 66 340 0.0 3.0 0.00 0.05 0.01 88 1012.6
20260904103014 66 360 0.0 3.0 0.01 0.05 0.01 88 1012.6
20260904102513 66 340 0.0 5.0 0.01 0.05 0.01 88 1012.5
20260904102012 66 340 1.0 5.0 0.01 0.05 0.01 88 1012.6
20260904101517 66 299 0.0 3.0 0.01 0.05 0.01 88 1012.6
20260904101012 66 360 0.0 3.0 0.01 0.05 0.01 88 1012.4
20260904100511 66 295 1.0 3.0 0.01 0.05 0.01 88 1012.5
20260904100011 66 360 0.0 2.0 0.01 0.05 0.01 88 1012.4
20260904095511 66 292 0.0 4.0 0.01 0.06 0.01 88 1012.5
20260904095012 66 292 0.0 4.0 0.01 0.06 0.01 88 1012.4
20260904094608 67 292 1.0 4.0 0.01 0.06 0.01 88 1012.4
20260904094009 67 309 1.0 4.0 0.01 0.06 0.01 88 1012.4
20260904093509 67 313 1.0 4.0 0.01 0.06 0.01 88 1012.4
20260904093008 67 313 0.0 1.0 0.00 0.05 0.00 88 1012.3
20260904092511 67 313 0.0 5.0 0.00 0.05 0.00 88 1012.3
20260904092008 67 313 1.0 5.0 0.00 0.05 0.00 88 1012.3
20260904091508 67 311 2.0 5.0 0.00 0.05 0.00 88 1012.4
20260904091008 67 334 1.0 9.0 0.00 0.05 0.00 88 1012.2
20260904090508 67 316 2.0 9.0 0.00 0.05 0.00 88 1012.2
20260904090007 67 323 2.0 9.0 0.00 0.05 0.00 88 1012.0
20260904085506 67 329 2.0 9.0 0.00 0.05 0.00 88 1012.0
20260904085006 67 343 3.0 10.0 0.00 0.05 0.00 88 1012.1
20260904084506 67 302 3.0 10.0 0.00 0.05 0.00 88 1012.0
20260904084005 67 330 4.0 10.0 0.00 0.05 0.00 88 1011.9
20260904083504 67 355 2.0 9.0 0.00 0.05 0.00 88 1011.9
20260904083004 67 328 4.0 9.0 0.00 0.05 0.00 88 1011.9
20260904082504 67 349 3.0 8.0 0.00 0.05 0.00 88 1011.8
20260904082004 67 330 1.0 6.0 0.00 0.05 0.00 88 1011.8
20260904081505 67 330 2.0 6.0 0.00 0.05 0.00 88 1011.9
20260904081002 67 329 1.0 6.0 0.00 0.05 0.00 88 1011.9
20260904080505 67 333 1.0 8.0 0.00 0.05 0.00 88 1012.0
20260904080002 67 355 3.0 8.0 0.00 0.06 0.00 88 1012.1
20260904075503 67 334 1.0 5.0 0.00 0.06 0.00 88 1011.9
20260904075100 67 327 1.0 5.0 0.00 0.06 0.00 88 1012.0
20260904074634 67 339 2.0 5.0 0.00 0.06 0.00 89 1012.0
20260904074058 67 331 1.0 5.0 0.00 0.06 0.00 89 1012.0
20260904073602 67 333 1.0 6.0 0.00 0.06 0.00 89 1012.1
20260904073058 67 340 2.0 9.0 0.00 0.06 0.00 89 1012.1
20260904072557 67 339 3.0 9.0 0.00 0.06 0.00 89 1012.2
20260904072055 67 302 4.0 9.0 0.00 0.06 0.00 89 1012.4
20260904071555 67 348 1.0 5.0 0.00 0.06 0.00 89 1012.5
20260904071054 67 28 1.0 5.0 0.00 0.06 0.00 89 1012.6
20260904070555 68 32 3.0 5.0 0.00 0.06 0.00 89 1012.6
20260904070054 68 350 2.0 5.0 0.00 0.06 0.00 89 1012.7
20260904065553 68 329 1.0 5.0 0.00 0.06 0.00 89 1012.7
20260904065053 68 344 1.0 6.0 0.00 0.06 0.00 89 1012.6
20260904064553 68 326 2.0 6.0 0.00 0.06 0.00 89 1012.6
20260904064052 68 355 2.0 5.0 0.00 0.06 0.00 89 1012.7
20260904063552 68 360 2.0 3.0 0.00 0.06 0.00 89 1012.8
20260904063107 68 355 0.0 3.0 0.00 0.06 0.00 89 1012.9
20260904062553 68 355 0.0 3.0 0.00 0.06 0.00 89 1012.7
20260904062054 68 355 1.0 3.0 0.00 0.06 0.00 89 1012.7
20260904061559 68 355 0.0 2.0 0.00 0.06 0.00 89 1012.9
20260904061050 68 355 0.0 2.0 0.00 0.06 0.00 89 1012.8
20260904060550 68 355 0.0 4.0 0.00 0.06 0.00 89 1012.8
20260904060109 68 355 0.0 4.0 0.00 0.06 0.00 89 1012.9
20260904055550 68 355 2.0 5.0 0.00 0.07 0.00 89 1013.0
20260904055048 68 338 3.0 5.0 0.00 0.07 0.00 89 1013.1
20260904054548 68 26 2.0 5.0 0.00 0.07 0.00 89 1013.1
20260904054048 68 351 3.0 5.0 0.00 0.07 0.00 89 1013.1
20260904053547 68 22 2.0 4.0 0.00 0.07 0.00 89 1013.0
20260904053047 68 19 1.0 6.0 0.00 0.07 0.00 89 1013.1
20260904052546 69 20 3.0 6.0 0.00 0.07 0.00 89 1013.1
20260904052046 69 351 2.0 5.0 0.00 0.07 0.00 89 1013.2
20260904051547 69 336 2.0 5.0 0.00 0.07 0.00 89 1013.1
20260904051044 69 319 1.0 4.0 0.00 0.07 0.00 89 1013.2
20260904050543 69 322 0.0 4.0 0.00 0.07 0.00 89 1013.3
20260904050044 69 322 1.0 4.0 0.00 0.07 0.00 89 1013.4
20260904045543 69 322 1.0 4.0 0.00 0.08 0.00 89 1013.4
20260904045046 69 329 0.0 3.0 0.00 0.08 0.00 90 1013.4
20260904044549 69 329 1.0 3.0 0.00 0.08 0.00 90 1013.5
20260904044041 69 329 0.0 3.0 0.00 0.08 0.00 90 1013.6
20260904043540 69 330 0.0 3.0 0.00 0.08 0.00 90 1013.6
20260904043043 69 331 0.0 4.0 0.00 0.08 0.00 90 1013.6
20260904042541 69 331 0.0 4.0 0.00 0.08 0.00 90 1013.5
20260904042040 69 333 0.0 4.0 0.00 0.08 0.00 90 1013.5
20260904041539 69 333 1.0 4.0 0.00 0.08 0.00 90 1013.6
20260904041038 69 337 1.0 4.0 0.00 0.08 0.00 90 1013.6
20260904040539 69 315 1.0 5.0 0.00 0.08 0.00 90 1013.6
20260904040040 69 325 0.0 5.0 0.00 0.08 0.00 90 1013.5
20260904035536 69 306 1.0 4.0 0.00 0.08 0.08 90 1013.6
20260904035036 69 332 1.0 4.0 0.00 0.08 0.08 90 1013.7
20260904034541 69 279 0.0 3.0 0.00 0.08 0.08 90 1013.8
20260904034035 69 270 0.0 2.0 0.00 0.08 0.08 90 1013.7
20260904033535 69 269 0.0 2.0 0.00 0.08 0.08 90 1013.7
20260904033039 69 360 0.0 3.0 0.00 0.08 0.08 90 1013.9
20260904032534 69 268 1.0 3.0 0.00 0.08 0.08 90 1013.9
20260904032034 69 250 0.0 0.0 0.00 0.08 0.08 90 1013.9
20260904031534 69 250 0.0 0.0 0.00 0.08 0.08 90 1014.1
20260904031034 70 250 0.0 0.0 0.00 0.08 0.08 90 1014.0
20260904030539 70 250 0.0 0.0 0.00 0.08 0.08 90 1014.0
20260904030034 70 360 0.0 1.0 0.00 0.08 0.08 90 1014.1
20260904025536 70 250 0.0 2.0 0.00 0.09 0.08 89 1014.2
20260904025033 70 249 0.0 2.0 0.00 0.09 0.08 89 1014.2
20260904024533 70 249 0.0 2.0 0.00 0.09 0.08 89 1014.1
20260904024032 70 248 0.0 1.0 0.00 0.09 0.08 89 1014.1
20260904023534 70 248 0.0 1.0 0.00 0.09 0.08 89 1014.2
20260904023032 70 248 0.0 1.0 0.00 0.09 0.08 89 1014.2
20260904022532 70 248 0.0 1.0 0.00 0.09 0.08 89 1014.2
20260904022034 71 248 0.0 1.0 0.00 0.09 0.08 89 1014.2
20260904021535 71 248 0.0 3.0 0.00 0.09 0.08 89 1014.2
20260904021034 71 248 0.0 3.0 0.00 0.09 0.08 89 1014.4
20260904020532 71 248 0.0 2.0 0.00 0.09 0.08 89 1014.5
20260904020034 71 248 0.0 2.0 0.00 0.09 0.08 88 1014.4
20260904015532 71 248 0.0 0.0 0.00 0.09 0.08 88 1014.5
20260904015032 71 248 0.0 1.0 0.00 0.09 0.08 88 1014.6
20260904014531 71 248 0.0 1.0 0.00 0.09 0.08 88 1014.7
20260904014032 71 248 0.0 1.0 0.00 0.09 0.08 88 1014.6
20260904013531 71 248 0.0 1.0 0.00 0.09 0.08 88 1014.6
20260904013034 72 248 0.0 1.0 0.00 0.09 0.08 87 1014.4
20260904012537 72 248 0.0 1.0 0.00 0.09 0.08 87 1014.4
20260904012036 72 248 0.0 2.0 0.00 0.09 0.08 87 1014.4
20260904011538 72 247 0.0 4.0 0.00 0.09 0.08 87 1014.4
20260904011032 72 246 0.0 4.0 0.00 0.09 0.08 87 1014.4
20260904010530 72 240 1.0 3.0 0.00 0.09 0.08 87 1014.4
20260904010043 72 238 0.0 2.0 0.00 0.09 0.08 87 1014.4
20260904005529 73 237 0.0 1.0 0.00 0.10 0.08 87 1014.4
20260904005029 73 237 0.0 1.0 0.00 0.10 0.08 87 1014.5
20260904004531 73 236 0.0 1.0 0.00 0.10 0.08 87 1014.4
20260904004029 73 236 0.0 1.0 0.00 0.10 0.08 86 1014.4
20260904003531 73 237 0.0 1.0 0.00 0.10 0.08 86 1014.3
20260904003032 74 236 0.0 1.0 0.00 0.10 0.08 86 1014.3
20260904002528 74 236 0.0 2.0 0.00 0.10 0.08 86 1014.4
20260904002028 74 236 0.0 5.0 0.00 0.10 0.08 86 1014.2
20260904001529 74 235 2.0 5.0 0.00 0.10 0.08 86 1014.2
20260904001031 74 218 1.0 4.0 0.00 0.10 0.08 85 1013.9
20260904000528 75 204 1.0 3.0 0.00 0.10 0.08 85 1013.8
20260904000028 75 191 1.0 2.0 0.00 0.10 0.08 85 1013.7
20260903235528 75 189 0.0 0.0 0.00 0.10 0.08 84 1013.5
20260903235027 76 190 0.0 1.0 0.00 0.10 0.08 84 1013.5
20260903234534 76 189 0.0 1.0 0.00 0.10 0.08 84 1013.6
20260903234028 76 189 0.0 1.0 0.00 0.10 0.08 84 1013.8
20260903233627 76 187 0.0 2.0 0.00 0.10 0.08 83 1013.6
20260903233026 77 188 0.0 2.0 0.00 0.10 0.08 83 1013.7
20260903232526 77 187 0.0 1.0 0.00 0.10 0.08 83 1013.6
20260903232028 77 186 0.0 0.0 0.00 0.10 0.08 82 1013.6
20260903231527 78 186 0.0 0.0 0.00 0.10 0.08 82 1013.7
20260903231026 78 186 0.0 0.0 0.00 0.10 0.08 82 1013.4
20260903230526 78 187 0.0 0.0 0.00 0.10 0.08 82 1013.6
20260903230027 79 187 0.0 0.0 0.00 0.10 0.08 81 1013.4
20260903225528 79 360 0.0 0.0 0.00 0.11 0.08 81 1013.5
20260903225025 79 189 0.0 0.0 0.00 0.11 0.08 80 1013.5
20260903224527 79 360 0.0 0.0 0.00 0.11 0.08 80 1013.5
20260903224028 80 189 0.0 0.0 0.00 0.11 0.08 79 1013.3
20260903223524 80 360 0.0 0.0 0.00 0.11 0.08 79 1013.3
20260903223034 80 360 0.0 0.0 0.00 0.11 0.08 79 1013.3
20260903222524 80 360 0.0 0.0 0.00 0.11 0.08 79 1013.5
20260903222026 80 180 0.0 0.0 0.00 0.11 0.08 78 1013.4
20260903221524 80 180 0.0 0.0 0.00 0.11 0.08 79 1013.5
20260903221023 80 180 0.0 0.0 0.00 0.11 0.08 79 1013.6
20260903220523 80 180 0.0 0.0 0.00 0.11 0.08 79 1013.6
20260903220035 79 360 0.0 0.0 0.00 0.11 0.08 79 1013.6
20260903215523 79 178 0.0 0.0 0.00 0.11 0.08 79 1013.6
20260903215023 79 360 0.0 0.0 0.00 0.11 0.08 80 1013.7
20260903214523 79 360 0.0 0.0 0.00 0.11 0.08 80 1013.6
20260903214022 79 360 0.0 0.0 0.00 0.11 0.08 80 1013.5
20260903213524 79 360 0.0 0.0 0.00 0.11 0.08 79 1013.5
20260903213033 79 360 0.0 0.0 0.00 0.11 0.08 79 1013.3
20260903212524 79 183 0.0 0.0 0.00 0.11 0.08 78 1013.5
20260903212025 80 182 0.0 0.0 0.00 0.11 0.08 78 1013.6
20260903211553 80 182 0.0 3.0 0.00 0.11 0.08 78 1013.5
20260903211025 80 179 0.0 3.0 0.00 0.11 0.08 78 1013.6
20260903210521 80 360 0.0 4.0 0.00 0.11 0.08 77 1013.5
20260903210021 80 360 1.0 5.0 0.00 0.11 0.08 77 1013.4
20260903205522 80 360 2.0 5.0 0.00 0.11 0.08 76 1013.2
20260903205021 80 360 2.0 5.0 0.00 0.11 0.08 76 1013.2
20260903204520 81 173 2.0 4.0 0.00 0.11 0.08 76 1013.3
20260903204020 81 360 1.0 4.0 0.00 0.11 0.08 75 1013.4
20260903203521 81 360 0.0 5.0 0.00 0.11 0.08 75 1013.4
20260903203020 81 360 1.0 5.0 0.00 0.11 0.08 75 1013.4
20260903202520 82 360 1.0 5.0 0.00 0.11 0.08 74 1013.4
20260903202019 82 360 1.0 4.0 0.00 0.11 0.08 74 1013.3
20260903201519 82 360 0.0 6.0 0.00 0.11 0.08 73 1013.3
20260903201019 82 159 2.0 7.0 0.00 0.11 0.08 71 1013.3
20260903200518 83 188 3.0 7.0 0.00 0.11 0.08 71 1013.3
20260903200017 83 190 3.0 5.0 0.00 0.11 0.08 71 1013.2
20260903195517 83 145 1.0 7.0 0.00 0.11 0.08 72 1013.3
20260903195016 83 239 3.0 7.0 0.00 0.11 0.08 71 1013.4
20260903194516 83 197 3.0 5.0 0.00 0.11 0.08 72 1013.4
20260903194012 83 179 3.0 6.0 0.00 0.11 0.08 72 1013.5
20260903193510 83 181 2.0 8.0 0.00 0.11 0.08 73 1013.6
20260903193110 83 168 5.0 8.0 0.00 0.11 0.08 73 1013.8
20260903192512 83 194 3.0 7.0 0.00 0.11 0.08 74 1013.9
20260903192007 82 155 2.0 7.0 0.00 0.11 0.08 74 1013.9
20260903191514 82 163 5.0 7.0 0.00 0.11 0.08 74 1014.0
20260903191006 82 181 3.0 7.0 0.00 0.11 0.08 75 1014.1
20260903190505 81 153 3.0 7.0 0.00 0.11 0.08 75 1014.2
20260903190004 81 184 1.0 6.0 0.00 0.11 0.08 76 1014.2
20260903185502 81 206 2.0 6.0 0.00 0.12 0.08 76 1014.4
20260903185001 80 189 2.0 6.0 0.01 0.12 0.08 76 1014.4
20260903184604 80 141 0.0 4.0 0.01 0.12 0.08 77 1014.4
20260903184059 79 126 0.0 3.0 0.01 0.12 0.08 77 1014.4
20260903183557 79 119 0.0 3.0 0.01 0.12 0.08 77 1014.5
20260903183057 79 120 0.0 4.0 0.01 0.12 0.08 78 1014.7
20260903182557 79 113 1.0 4.0 0.01 0.12 0.08 78 1014.6
20260903182056 78 28 0.0 0.0 0.01 0.12 0.08 79 1014.8
20260903181554 78 29 0.0 1.0 0.01 0.12 0.08 80 1014.8
20260903181053 78 24 0.0 2.0 0.01 0.12 0.08 81 1014.8
20260903180551 76 26 1.0 3.0 0.01 0.12 0.08 82 1014.7
20260903175549 76 21 2.0 3.0 0.01 0.12 0.08 81 1014.8
20260903175049 76 19 0.0 3.0 0.00 0.11 0.07 82 1015.1
20260903174606 76 19 1.0 3.0 0.00 0.11 0.07 81 1015.1
20260903174047 76 17 0.0 3.0 0.00 0.11 0.07 82 1015.1
20260903173547 76 13 0.0 2.0 0.00 0.11 0.07 82 1015.2
20260903173047 75 13 0.0 2.0 0.00 0.11 0.07 84 1015.2
20260903172545 75 355 0.0 3.0 0.00 0.11 0.07 84 1015.3
20260903172045 74 350 1.0 3.0 0.00 0.11 0.07 85 1015.3
20260903171541 74 39 0.0 3.0 0.00 0.11 0.07 87 1015.3
20260903171039 73 42 0.0 4.0 0.00 0.11 0.07 88 1015.3
20260903170540 72 40 1.0 4.0 0.00 0.11 0.07 88 1015.3
20260903170100 72 18 0.0 4.0 0.00 0.11 0.07 88 1015.3
20260903165537 72 17 2.0 4.0 0.00 0.12 0.07 89 1015.3
20260903165039 71 32 1.0 4.0 0.00 0.12 0.07 89 1015.3
20260903164541 71 38 2.0 4.0 0.00 0.12 0.07 89 1015.3
20260903164033 71 9 0.0 4.0 0.00 0.12 0.07 91 1015.4
20260903163531 70 9 0.0 5.0 0.00 0.12 0.07 91 1015.5
20260903163031 70 9 3.0 5.0 0.00 0.12 0.07 91 1015.6
20260903162530 70 360 2.0 4.0 0.00 0.12 0.07 92 1015.6
20260903162029 70 360 0.0 3.0 0.00 0.12 0.07 93 1015.7
20260903161528 69 106 0.0 3.0 0.00 0.12 0.07 93 1015.7
20260903161029 69 104 0.0 3.0 0.00 0.12 0.07 93 1015.7
20260903160526 69 104 1.0 3.0 0.00 0.12 0.07 93 1015.7
20260903160027 69 105 0.0 2.0 0.01 0.12 0.07 93 1015.7
20260903155523 68 107 0.0 4.0 0.01 0.12 0.07 94 1015.8
20260903155023 68 107 1.0 4.0 0.01 0.12 0.07 94 1015.7
20260903154522 68 102 0.0 2.0 0.01 0.12 0.07 94 1015.8
20260903154020 68 102 0.0 2.0 0.01 0.12 0.07 94 1016.0
20260903153518 67 103 0.0 3.0 0.01 0.12 0.07 94 1016.0
20260903153017 67 103 0.0 3.0 0.01 0.12 0.07 94 1016.0
20260903152517 67 96 0.0 3.0 0.01 0.12 0.07 94 1016.0
20260903152015 67 94 0.0 3.0 0.01 0.12 0.07 94 1016.0
20260903151515 66 92 0.0 3.0 0.01 0.12 0.07 94 1016.1
20260903151014 66 92 1.0 3.0 0.01 0.12 0.07 94 1016.0
20260903150514 66 338 0.0 2.0 0.01 0.12 0.07 94 1016.0
20260903150019 66 338 0.0 2.0 0.00 0.11 0.06 94 1016.0
20260903145513 65 338 0.0 3.0 0.00 0.11 0.06 94 1016.0
20260903145010 65 337 0.0 3.0 0.00 0.11 0.06 94 1016.0
20260903144510 65 336 0.0 2.0 0.00 0.11 0.06 94 1016.1
20260903144009 65 335 0.0 2.0 0.00 0.11 0.06 94 1016.1
20260903143508 65 335 0.0 2.0 0.00 0.11 0.06 94 1016.1
20260903143007 65 335 0.0 3.0 0.00 0.11 0.06 94 1016.0
20260903142506 64 198 0.0 3.0 0.00 0.11 0.06 94 1015.9
20260903142004 64 194 0.0 2.0 0.00 0.11 0.06 94 1015.9
20260903141506 64 190 0.0 2.0 0.00 0.11 0.06 94 1016.0
20260903141006 64 190 0.0 1.0 0.00 0.11 0.06 94 1016.1
20260903140504 64 190 0.0 1.0 0.00 0.11 0.06 94 1016.0
20260903140003 64 190 0.0 1.0 0.01 0.11 0.06 94 1016.0
20260903135503 64 190 0.0 1.0 0.01 0.12 0.06 94 1016.0
20260903135002 63 190 0.0 0.0 0.01 0.12 0.06 94 1016.1
20260903134502 63 190 0.0 2.0 0.01 0.12 0.06 93 1016.2
20260903134105 63 190 0.0 2.0 0.01 0.12 0.06 93 1016.3
20260903133602 63 190 0.0 1.0 0.01 0.12 0.06 94 1016.3
20260903133058 63 190 0.0 0.0 0.01 0.12 0.06 93 1016.4
20260903132557 63 190 0.0 0.0 0.01 0.12 0.06 93 1016.6
20260903132057 63 190 0.0 0.0 0.01 0.12 0.06 93 1016.6
20260903131600 63 190 0.0 1.0 0.01 0.12 0.06 93 1016.8
20260903131059 63 190 0.0 2.0 0.01 0.12 0.06 93 1016.8
20260903130557 63 190 0.0 2.0 0.01 0.12 0.06 93 1016.6
20260903130109 63 191 0.0 1.0 0.00 0.11 0.05 93 1016.8
20260903125552 63 191 0.0 1.0 0.00 0.11 0.05 93 1016.9
20260903125054 62 191 0.0 1.0 0.00 0.11 0.05 93 1017.0
20260903124550 62 191 0.0 1.0 0.00 0.11 0.05 93 1017.0
20260903124049 62 191 0.0 2.0 0.00 0.11 0.05 93 1017.1
20260903123550 62 191 0.0 2.0 0.00 0.11 0.05 93 1017.0
20260903123048 62 191 0.0 1.0 0.00 0.11 0.05 93 1017.1
20260903122553 62 191 0.0 1.0 0.00 0.11 0.05 93 1017.0
20260903122048 62 191 0.0 1.0 0.00 0.11 0.05 93 1017.1
20260903121548 62 191 0.0 1.0 0.00 0.11 0.05 93 1017.1
20260903121047 62 191 0.0 2.0 0.00 0.11 0.05 93 1017.1
20260903120547 62 191 0.0 2.0 0.00 0.11 0.05 93 1017.1
20260903120047 62 190 0.0 2.0 0.00 0.11 0.05 93 1017.3